SCP
0 0 0 0 0 0 0 0 0 0 0 0 0 0 0 0 0 0 0 0 0 0 0 0 0 0 0 0 -0 -0 -0 -0 0 0 0 0 0 0 0 0 0 0 0
0 0 0 0 0 0 0 0 0 0 0 0 0 0 0 0 0 0 0 0 0 0 -0 0 0 -0 0 0 -0 0 0 0 0 0 0 0 0 0 0 0 0 0 0
0 0 0 0 0 0 0 0 0 0 0 0 0 0 0 0 0 0 0 0 0 0 0 0 0 0 0 0 0 0 0 0 0 0 0 0 0 0 0 0 0 0 0
0 0 0 0 0 0 0 0 0 0 0 0 0 0 0 0 0 0 0 0 0 0 0 0 0 0 0 0 0 0 0 0 0 0 0 0 0 0 0 0 0 0 0
0 0 0 0 0 0 0 0 0 0 0 0 0 0 0 0 0 0 0 0 0 0 0 0 0 0 0 0 0 0 0 0 0 0 0 0 0 0 0 0 0 0 0
0 0 0 0 0 0 0 0 0 0 0 0 0 0 0 0 0 0 0 0 0 0 0 0 0 0 0 0 0 0 0 0 0 0 0 0 0 0 0 0 0 0 0
0 0 0 0 0 0 0 0 0 0 0 0 0 0 0 0 0 0 0 0 0 0 0 0 0 0 0 0 0 0 0 0 0 0 0 0 0 0 0 0 0 0 0
0 0 0 0 0 0 0 0 0 0 0 0 0 0 0 0 0 0 0 0 0 0 0 0 0 0 0 0 0 0 0 0 0 0 0 0 0 0 0 0 0 0 0
0 0 0 0 0 0 0 0 0 0 0 0 0 0 0 0 0 0 0 0 0 0 0 0 0 0 0 0 0 0 0 0 0 0 0 0 0 0 0 0 0 0 0
0 0 0 0 0 0 0 0 0 0 0 0 0 0 0 0 0 0 0 0 0 0 0 0 0 0 0 0 0 0 0 0 0 0 0 0 0 0 0 0 0 0 0
0 0 0 0 0 0 0 0 0 0 0 0 0 0 0 0 0 0 0 0 0 0 0 0 0 0 0 0 0 0 0 0 0 0 0 0 0 0 0 0 0 0 0
0 0 0 0 0 0 0 0 0 0 0 0 0 0 0 0 0 0 0 0 0 0 0 0 0 0 0 0 0 0 0 0 0 0 0 0 0 0 0 0 0 0 0
0 0 0 0 0 0 0 0 0 0 0 0 0 0 0 0 0 0 0 0 0 0 0 0 0 0 0 0 0 0 0 0 0 0 0 0 0 0 0 0 0 0 0
0 0 0 0 0 0 0 0 0 0 0 0 0 0 0 0 0 0 0 0 0 0 0 0 0 0 0 0 0 0 0 0 0 0 0 0 0 0 0 0 0 0 0
0 0 0 0 0 0 0 0 0 0 0 0 0 0 0 0 0 0 0 0 0 0 0 0 0 0 0 0 0 0 0 0 0 0 0 0 0 0 0 0 0 0 0
0 0 0 0 0 0 0 0 0 0 0 0 0 0 0 0 0 0 0 0 0 0 0 0 0 0 0 0 0 0 0 0 0 0 0 0 0 0 0 0 0 0 0
0 0 0 0 0 0 0 0 0 0 0 0 0 0 0 0 0 0 0 0 0 0 0 0 0 0 0 0 0 0 0 0 0 0 0 0 0 0 0 0 0 0 0
0 0 0 0 0 0 0 0 0 0 0 0 0 0 0 0 0 0 0 0 0 0 0 0 0 0 0 0 0 0 0 0 0 0 0 0 0 0 0 0 0 0 0
0 0 0 0 0 0 0 0 0 0 0 0 0 0 0 0 0 0 0 0 0 0 0 0 0 0 0 0 0 0 0 0 0 0 0 0 0 0 0 0 0 0 0
0 0 0 0 0 0 0 0 0 0 0 0 0 0 0 0 0 0 0 0 0 0 0 0 0 0 0 0 0 0 0 0 0 0 0 0 0 0 0 0 0 0 0
0 0 0 0 0 0 0 0 0 0 0 0 0 0 0 0 0 0 0 0 0 0 0 0 0 0 0 0 0 0 0 0 0 0 0 0 0 0 0 0 0 0 0
0 0 0 0 0 0 0 0 0 0 0 0 0 0 0 0 0 0 0 0 0 0 0 0 0 0 0 0 0 0 0 0 0 0 0 0 0 0 0 0 0 0 0
0 0 0 0 0 0 0 0 0 0 0 0 0 0 0 0 0 0 0 0 0 0 0 0 0 0 0 0 0 0 0 0 0 0 0 0 0 0 0 0 0 0 0
0 0 0 0 0 0 0 0 0 0 0 0 0 0 0 0 0 0 0 0 0 0 0 0 0 0 0 0 0 0 0 0 0 0 0 0 0 0 0 0 0 0 0
0 0 0 0 0 0 0 0 0 0 0 0 0 0 0 0 0 0 0 0 0 0 0 0 0 0 0 0 0 0 0 0 0 0 0 0 0 0 0 0 0 0 0
0 0 0 0 0 0 0 0 0 0 0 0 0 0 0 0 0 0 0 0 0 0 0 0 0 0 0 0 0 0 0 0 0 0 0 0 0 0 0 0 0 0 0
Wind_Speed_500mb
9 8 8 8 9 10 11 12 12 13 12 11 9 7 5 4 5 4 3 1 2 8 10 6 10 11 5 8 10 11 6 7 11 13 13 15 18 23 30 31 32 32 40
7 6 7 9 11 13 15 15 14 13 11 8 5 3 2 2 4 7 5 6 5 5 4 5 5 6 7 4 2 4 10 12 11 10 10 10 14 18 21 25 29 36 39
6 5 7 9 11 12 12 13 13 12 9 4 3 1 4 5 4 4 4 4 5 6 6 7 8 9 9 10 12 17 21 23 23 26 24 22 24 26 28 30 26 32 34
5 6 8 9 10 11 11 12 11 11 10 4 1 5 7 3 1 2 3 5 7 8 10 12 14 15 15 15 15 15 18 19 20 17 13 20 24 22 22 21 25 27 31
7 7 7 7 9 10 11 13 14 13 10 8 4 4 4 4 4 4 6 8 10 13 15 14 15 17 18 18 19 20 23 23 20 19 15 18 25 25 21 21 24 24 27
7 6 6 7 8 9 12 12 10 9 6 5 0 2 6 9 11 11 13 15 17 19 17 18 20 20 19 18 18 18 20 21 21 21 20 20 26 30 17 18 25 27 15
7 6 7 8 8 10 11 11 11 10 9 8 3 8 11 14 18 19 20 22 23 21 20 19 19 20 20 20 19 18 18 19 20 20 20 20 19 25 14 9 21 27 23
8 8 8 10 11 11 12 13 12 12 12 10 8 10 9 14 20 23 25 27 26 24 23 22 23 21 20 19 18 19 17 17 19 21 21 22 21 22 25 21 13 21 25
11 12 13 13 14 14 13 13 13 13 13 14 13 11 8 8 10 23 23 26 26 27 28 26 27 24 22 21 20 21 18 19 19 20 22 22 19 19 20 23 20 24 29
17 18 18 17 17 17 16 15 15 16 16 17 18 18 20 24 10 13 18 24 29 30 29 36 32 28 26 24 24 23 22 20 21 23 23 23 20 19 22 25 24 20 24
22 22 21 21 22 22 21 20 19 20 20 21 22 24 24 25 26 21 24 19 24 34 36 36 34 33 31 28 28 27 25 25 26 28 27 25 22 25 28 28 30 23 21
26 25 25 26 26 26 26 26 25 25 25 25 26 27 27 25 20 22 22 25 28 35 40 39 40 38 35 34 33 31 29 28 29 28 27 28 30 34 33 37 35 31 24
29 30 31 32 31 31 31 32 31 32 32 32 33 33 34 34 35 36 37 34 32 33 40 42 38 38 37 38 37 35 34 36 37 35 32 32 35 38 35 37 39 36 31
31 33 35 36 36 36 37 38 38 39 40 41 42 42 43 42 40 40 39 32 29 29 35 40 40 37 39 38 39 38 40 41 41 41 40 38 38 38 37 39 43 43 34
31 33 36 38 39 41 42 44 46 46 48 50 50 50 52 51 49 48 47 46 40 31 33 30 36 40 37 39 40 42 47 47 44 44 43 42 41 41 39 38 41 45 40
31 31 33 36 39 42 44 48 51 52 54 56 57 58 59 59 57 57 56 55 54 51 43 34 42 46 47 49 50 50 51 49 48 47 46 46 46 43 43 42 42 44 44
31 33 35 39 42 45 47 51 55 57 60 61 63 64 63 63 64 64 64 63 64 62 61 62 56 58 57 58 56 56 54 53 51 51 50 50 49 46 45 44 44 45 46
29 33 36 39 41 45 48 51 55 58 63 67 68 71 72 68 69 68 71 73 73 71 71 67 65 64 68 62 60 59 58 58 55 56 54 53 50 49 48 47 46 46 46
25 27 30 33 36 39 42 46 50 53 57 62 65 68 73 73 76 77 76 77 78 78 78 81 80 73 72 69 67 66 64 62 60 60 59 54 52 51 48 47 47 48 49
28 31 34 37 39 42 44 45 48 51 55 58 60 65 69 73 78 78 80 82 82 81 80 82 86 83 77 75 74 72 65 62 62 59 60 55 54 54 51 47 45 47 48
33 37 40 42 44 48 49 50 54 58 61 63 64 66 68 69 71 74 79 83 86 86 87 89 92 89 87 83 82 73 65 61 58 63 59 55 56 52 49 42 43 46 47
38 42 45 48 50 53 54 55 59 64 67 71 74 72 72 72 71 72 75 80 85 91 93 93 95 94 92 88 81 78 71 61 52 48 49 44 45 45 46 45 44 47 50
48 51 53 55 56 57 57 59 61 67 71 73 76 78 79 78 77 77 78 79 83 87 91 92 96 94 92 84 81 74 74 67 59 43 51 43 41 45 44 44 44 45 49
57 59 59 60 63 64 62 62 63 67 71 73 73 73 73 76 77 78 80 85 87 88 90 92 95 94 90 86 81 76 70 70 59 49 43 49 41 43 37 37 41 44 46
59 60 62 63 63 63 59 57 57 62 66 69 68 68 69 72 72 69 77 88 92 93 86 87 89 92 90 83 78 74 76 64 63 56 44 47 42 41 36 36 37 44 49
61 63 65 62 61 60 56 55 54 61 68 70 70 70 73 76 69 63 65 74 87 90 84 83 88 89 88 85 82 80 76 70 66 46 47 52 43 35 20 22 31 27 30
Wind_Direction_500mb
350 353 352 352 352 350 348 343 341 337 336 334 331 320 327 299 329 346 342 111 237 220 226 224 238 240 292 337 324 297 314 28 18 7 349 323 296 282 275 276 279 277 276
1 1 3 360 358 358 353 351 348 350 350 340 320 279 295 295 40 37 45 38 7 14 331 270 300 273 239 187 12 323 293 270 267 288 312 326 321 320 319 313 296 286 285
352 354 354 351 353 356 357 1 5 6 6 350 322 226 94 82 50 36 24 18 10 359 347 332 321 320 319 290 296 290 290 288 289 289 290 292 285 288 294 297 315 305 297
329 335 344 346 351 354 360 2 3 11 24 4 225 143 148 138 153 350 352 353 347 340 329 323 322 319 316 309 305 313 308 296 289 286 304 285 281 286 295 301 306 324 319
327 334 336 349 353 351 355 359 359 357 349 333 12 112 137 191 250 289 294 300 304 311 312 313 314 310 305 300 295 293 298 305 309 310 292 289 286 286 285 306 310 315 306
329 332 339 344 341 343 351 353 351 345 343 324 348 219 218 241 256 266 277 284 290 300 302 311 313 308 302 296 292 290 293 300 302 298 301 315 313 303 308 315 307 294 314
314 315 318 322 334 340 340 338 334 321 317 314 303 302 297 264 264 266 270 276 282 288 292 299 304 300 297 293 292 291 290 292 299 303 299 296 326 325 312 299 308 300 283
299 306 303 315 324 329 329 326 325 315 308 298 262 264 273 270 269 263 269 272 277 280 282 288 299 292 286 285 287 292 295 296 299 304 304 303 303 315 318 297 278 298 293
297 289 290 304 312 315 316 316 314 307 300 291 275 249 273 261 276 277 271 271 272 278 285 289 298 291 287 284 288 295 294 296 297 300 301 299 304 315 314 320 298 274 283
286 282 288 295 298 302 303 303 301 295 291 287 283 268 260 264 275 287 281 272 278 281 282 294 296 291 289 280 285 282 286 292 295 297 295 294 299 301 302 310 314 312 308
281 281 284 287 288 290 292 295 294 291 289 286 283 283 278 275 269 265 284 281 286 284 288 288 286 288 283 275 280 279 284 291 298 301 298 297 293 294 300 306 308 308 306
280 280 279 281 283 285 287 288 287 287 287 285 283 280 276 273 272 269 274 285 283 282 290 287 286 284 282 278 280 278 281 287 294 292 289 286 286 292 294 294 298 300 302
283 280 280 279 280 281 283 283 285 286 286 286 285 284 280 274 271 270 267 269 272 282 284 283 280 280 278 277 277 279 282 290 296 296 294 291 292 297 298 297 296 298 295
290 282 278 277 280 281 282 284 284 283 284 282 281 281 279 278 276 273 270 269 273 270 282 277 281 277 275 273 271 275 280 285 289 290 290 291 291 292 295 294 295 297 293
295 287 282 281 282 282 283 284 285 285 284 282 280 278 278 277 276 275 272 270 263 265 269 272 274 282 275 270 271 275 281 284 286 286 287 288 290 291 291 289 291 292 294
301 301 296 291 289 288 288 286 286 285 283 283 282 281 279 279 278 275 273 271 266 260 260 266 276 277 278 277 278 278 280 284 285 284 284 283 284 284 286 289 289 289 289
300 297 294 293 292 291 290 289 288 287 286 286 283 282 280 278 277 275 273 271 268 265 260 267 269 275 277 278 279 281 280 283 282 282 281 280 280 281 282 284 286 286 285
302 301 300 298 297 295 292 290 290 289 287 286 284 281 281 279 277 276 273 272 270 269 266 265 271 271 277 278 277 275 278 279 280 280 278 276 276 275 277 280 282 282 280
319 317 315 312 310 307 305 302 298 294 290 288 286 282 281 279 275 274 273 271 271 269 267 268 269 269 271 273 276 277 277 280 281 281 278 277 274 274 276 277 280 279 275
323 321 319 316 313 309 307 305 301 298 295 292 289 286 283 279 277 276 273 272 271 269 268 266 268 270 270 270 271 273 272 280 283 280 278 276 275 275 275 274 275 273 272
322 319 316 312 310 307 306 305 302 299 297 294 292 291 289 286 282 278 274 271 270 268 267 267 267 268 267 267 266 271 272 274 276 274 273 273 274 272 271 269 271 269 268
325 321 318 315 311 308 307 303 300 297 295 294 294 292 291 290 287 285 278 273 268 267 266 265 266 264 266 268 269 267 268 264 271 275 265 266 264 266 268 269 271 270 267
322 321 319 317 314 311 309 305 301 298 296 294 292 292 290 289 288 287 285 280 273 267 264 264 264 264 268 270 270 265 263 265 262 251 269 261 259 263 266 268 272 266 263
324 323 321 320 318 317 316 312 308 302 300 299 298 297 295 294 291 288 287 284 279 274 267 262 260 262 263 265 265 267 266 272 263 250 245 256 261 258 263 264 272 272 266
322 321 321 320 319 319 320 317 314 308 304 303 303 300 298 299 299 296 287 284 281 277 274 269 265 263 263 262 261 259 259 261 251 248 245 246 254 261 260 263 268 275 269
320 320 319 320 321 322 323 324 321 314 312 312 310 309 308 307 304 300 294 287 283 281 282 275 267 261 258 257 257 255 260 255 250 247 243 235 247 253 262 261 275 268 267
Wind_Speed_850mb
9 8 8 8 9 10 11 12 12 13 12 11 9 7 5 4 5 4 3 1 2 8 10 6 10 11 5 8 10 11 6 7 11 13 13 15 18 23 30 31 32 32 40
7 6 7 9 11 13 15 15 14 13 11 8 5 3 2 2 4 7 5 6 5 5 4 5 5 6 7 4 2 4 10 12 11 10 10 10 14 18 21 25 29 36 39
6 5 7 9 11 12 12 13 13 12 9 4 3 1 4 5 4 4 4 4 5 6 6 7 8 9 9 10 12 17 21 23 23 26 24 22 24 26 28 30 26 32 34
5 6 8 9 10 11 11 12 11 11 10 4 1 5 7 3 1 2 3 5 7 8 10 12 14 15 15 15 15 15 18 19 20 17 13 20 24 22 22 21 25 27 31
7 7 7 7 9 10 11 13 14 13 10 8 4 4 4 4 4 4 6 8 10 13 15 14 15 17 18 18 19 20 23 23 20 19 15 18 25 25 21 21 24 24 27
7 6 6 7 8 9 12 12 10 9 6 5 0 2 6 9 11 11 13 15 17 19 17 18 20 20 19 18 18 18 20 21 21 21 20 20 26 30 17 18 25 27 15
7 6 7 8 8 10 11 11 11 10 9 8 3 8 11 14 18 19 20 22 23 21 20 19 19 20 20 20 19 18 18 19 20 20 20 20 19 25 14 9 21 27 23
8 8 8 10 11 11 12 13 12 12 12 10 8 10 9 14 20 23 25 27 26 24 23 22 23 21 20 19 18 19 17 17 19 21 21 22 21 22 25 21 13 21 25
11 12 13 13 14 14 13 13 13 13 13 14 13 11 8 8 10 23 23 26 26 27 28 26 27 24 22 21 20 21 18 19 19 20 22 22 19 19 20 23 20 24 29
17 18 18 17 17 17 16 15 15 16 16 17 18 18 20 24 10 13 18 24 29 30 29 36 32 28 26 24 24 23 22 20 21 23 23 23 20 19 22 25 24 20 24
22 22 21 21 22 22 21 20 19 20 20 21 22 24 24 25 26 21 24 19 24 34 36 36 34 33 31 28 28 27 25 25 26 28 27 25 22 25 28 28 30 23 21
26 25 25 26 26 26 26 26 25 25 25 25 26 27 27 25 20 22 22 25 28 35 40 39 40 38 35 34 33 31 29 28 29 28 27 28 30 34 33 37 35 31 24
29 30 31 32 31 31 31 32 31 32 32 32 33 33 34 34 35 36 37 34 32 33 40 42 38 38 37 38 37 35 34 36 37 35 32 32 35 38 35 37 39 36 31
31 33 35 36 36 36 37 38 38 39 40 41 42 42 43 42 40 40 39 32 29 29 35 40 40 37 39 38 39 38 40 41 41 41 40 38 38 38 37 39 43 43 34
31 33 36 38 39 41 42 44 46 46 48 50 50 50 52 51 49 48 47 46 40 31 33 30 36 40 37 39 40 42 47 47 44 44 43 42 41 41 39 38 41 45 40
31 31 33 36 39 42 44 48 51 52 54 56 57 58 59 59 57 57 56 55 54 51 43 34 42 46 47 49 50 50 51 49 48 47 46 46 46 43 43 42 42 44 44
31 33 35 39 42 45 47 51 55 57 60 61 63 64 63 63 64 64 64 63 64 62 61 62 56 58 57 58 56 56 54 53 51 51 50 50 49 46 45 44 44 45 46
29 33 36 39 41 45 48 51 55 58 63 67 68 71 72 68 69 68 71 73 73 71 71 67 65 64 68 62 60 59 58 58 55 56 54 53 50 49 48 47 46 46 46
25 27 30 33 36 39 42 46 50 53 57 62 65 68 73 73 76 77 76 77 78 78 78 81 80 73 72 69 67 66 64 62 60 60 59 54 52 51 48 47 47 48 49
28 31 34 37 39 42 44 45 48 51 55 58 60 65 69 73 78 78 80 82 82 81 80 82 86 83 77 75 74 72 65 62 62 59 60 55 54 54 51 47 45 47 48
33 37 40 42 44 48 49 50 54 58 61 63 64 66 68 69 71 74 79 83 86 86 87 89 92 89 87 83 82 73 65 61 58 63 59 55 56 52 49 42 43 46 47
38 42 45 48 50 53 54 55 59 64 67 71 74 72 72 72 71 72 75 80 85 91 93 93 95 94 92 88 81 78 71 61 52 48 49 44 45 45 46 45 44 47 50
48 51 53 55 56 57 57 59 61 67 71 73 76 78 79 78 77 77 78 79 83 87 91 92 96 94 92 84 81 74 74 67 59 43 51 43 41 45 44 44 44 45 49
57 59 59 60 63 64 62 62 63 67 71 73 73 73 73 76 77 78 80 85 87 88 90 92 95 94 90 86 81 76 70 70 59 49 43 49 41 43 37 37 41 44 46
59 60 62 63 63 63 59 57 57 62 66 69 68 68 69 72 72 69 77 88 92 93 86 87 89 92 90 83 78 74 76 64 63 56 44 47 42 41 36 36 37 44 49
61 63 65 62 61 60 56 55 54 61 68 70 70 70 73 76 69 63 65 74 87 90 84 83 88 89 88 85 82 80 76 70 66 46 47 52 43 35 20 22 31 27 30
Wind_Direction_850mb
350 353 352 352 352 350 348 343 341 337 336 334 331 320 327 299 329 346 342 111 237 220 226 224 238 240 292 337 324 297 314 28 18 7 349 323 296 282 275 276 279 277 276
1 1 3 360 358 358 353 351 348 350 350 340 320 279 295 295 40 37 45 38 7 14 331 270 300 273 239 187 12 323 293 270 267 288 312 326 321 320 319 313 296 286 285
352 354 354 351 353 356 357 1 5 6 6 350 322 226 94 82 50 36 24 18 10 359 347 332 321 320 319 290 296 290 290 288 289 289 290 292 285 288 294 297 315 305 297
329 335 344 346 351 354 360 2 3 11 24 4 225 143 148 138 153 350 352 353 347 340 329 323 322 319 316 309 305 313 308 296 289 286 304 285 281 286 295 301 306 324 319
327 334 336 349 353 351 355 359 359 357 349 333 12 112 137 191 250 289 294 300 304 311 312 313 314 310 305 300 295 293 298 305 309 310 292 289 286 286 285 306 310 315 306
329 332 339 344 341 343 351 353 351 345 343 324 348 219 218 241 256 266 277 284 290 300 302 311 313 308 302 296 292 290 293 300 302 298 301 315 313 303 308 315 307 294 314
314 315 318 322 334 340 340 338 334 321 317 314 303 302 297 264 264 266 270 276 282 288 292 299 304 300 297 293 292 291 290 292 299 303 299 296 326 325 312 299 308 300 283
299 306 303 315 324 329 329 326 325 315 308 298 262 264 273 270 269 263 269 272 277 280 282 288 299 292 286 285 287 292 295 296 299 304 304 303 303 315 318 297 278 298 293
297 289 290 304 312 315 316 316 314 307 300 291 275 249 273 261 276 277 271 271 272 278 285 289 298 291 287 284 288 295 294 296 297 300 301 299 304 315 314 320 298 274 283
286 282 288 295 298 302 303 303 301 295 291 287 283 268 260 264 275 287 281 272 278 281 282 294 296 291 289 280 285 282 286 292 295 297 295 294 299 301 302 310 314 312 308
281 281 284 287 288 290 292 295 294 291 289 286 283 283 278 275 269 265 284 281 286 284 288 288 286 288 283 275 280 279 284 291 298 301 298 297 293 294 300 306 308 308 306
280 280 279 281 283 285 287 288 287 287 287 285 283 280 276 273 272 269 274 285 283 282 290 287 286 284 282 278 280 278 281 287 294 292 289 286 286 292 294 294 298 300 302
283 280 280 279 280 281 283 283 285 286 286 286 285 284 280 274 271 270 267 269 272 282 284 283 280 280 278 277 277 279 282 290 296 296 294 291 292 297 298 297 296 298 295
290 282 278 277 280 281 282 284 284 283 284 282 281 281 279 278 276 273 270 269 273 270 282 277 281 277 275 273 271 275 280 285 289 290 290 291 291 292 295 294 295 297 293
295 287 282 281 282 282 283 284 285 285 284 282 280 278 278 277 276 275 272 270 263 265 269 272 274 282 275 270 271 275 281 284 286 286 287 288 290 291 291 289 291 292 294
301 301 296 291 289 288 288 286 286 285 283 283 282 281 279 279 278 275 273 271 266 260 260 266 276 277 278 277 278 278 280 284 285 284 284 283 284 284 286 289 289 289 289
300 297 294 293 292 291 290 289 288 287 286 286 283 282 280 278 277 275 273 271 268 265 260 267 269 275 277 278 279 281 280 283 282 282 281 280 280 281 282 284 286 286 285
302 301 300 298 297 295 292 290 290 289 287 286 284 281 281 279 277 276 273 272 270 269 266 265 271 271 277 278 277 275 278 279 280 280 278 276 276 275 277 280 282 282 280
319 317 315 312 310 307 305 302 298 294 290 288 286 282 281 279 275 274 273 271 271 269 267 268 269 269 271 273 276 277 277 280 281 281 278 277 274 274 276 277 280 279 275
323 321 319 316 313 309 307 305 301 298 295 292 289 286 283 279 277 276 273 272 271 269 268 266 268 270 270 270 271 273 272 280 283 280 278 276 275 275 275 274 275 273 272
322 319 316 312 310 307 306 305 302 299 297 294 292 291 289 286 282 278 274 271 270 268 267 267 267 268 267 267 266 271 272 274 276 274 273 273 274 272 271 269 271 269 268
325 321 318 315 311 308 307 303 300 297 295 294 294 292 291 290 287 285 278 273 268 267 266 265 266 264 266 268 269 267 268 264 271 275 265 266 264 266 268 269 271 270 267
322 321 319 317 314 311 309 305 301 298 296 294 292 292 290 289 288 287 285 280 273 267 264 264 264 264 268 270 270 265 263 265 262 251 269 261 259 263 266 268 272 266 263
324 323 321 320 318 317 316 312 308 302 300 299 298 297 295 294 291 288 287 284 279 274 267 262 260 262 263 265 265 267 266 272 263 250 245 256 261 258 263 264 272 272 266
322 321 321 320 319 319 320 317 314 308 304 303 303 300 298 299 299 296 287 284 281 277 274 269 265 263 263 262 261 259 259 261 251 248 245 246 254 261 260 263 268 275 269
320 320 319 320 321 322 323 324 321 314 312 312 310 309 308 307 304 300 294 287 283 281 282 275 267 261 258 257 257 255 260 255 250 247 243 235 247 253 262 261 275 268 267